Regional Weather Roundup
Issued by NWS

Home | Current Version | Previous Version | Graphics & Text | Print | Product List | Glossary On
Versions: 1 2 3 4 5 6 7 8 9 10 11 12 13 14 15 16 17 18 19 20 21 22 23 24 25 26 27 28 29 30 31 32 33 34 35 36 37 38 39 40 41 42 43 44 45 46 47 48 49 50
000
ASUS43 KDTX 191510
RWRMI
MICHIGAN HOURLY REGIONAL WEATHER ROUNDUP
NATIONAL WEATHER SERVICE DETROIT/PONTIAC MI
1100 AM EDT TUE SEP 19 2017

NOTE: "FAIR" INDICATES FEW OR NO CLOUDS BELOW 12,000 FEET WITH NO
SIGNIFICANT WEATHER AND/OR OBSTRUCTION TO VISIBILITY.

MIZ047>049-052>055-059>063-066>070-074>076-081>083-191600-
SOUTHEAST LOWER MICHIGAN

CITY           SKY/WX    TMP DP  RH WIND       PRES   REMARKS
ADRIAN         LGT RAIN  64  63  96 E6        30.01F FOG
ALMA           PTSUNNY   63  57  81 NE5       30.05R
ANN ARBOR      CLOUDY    66  64  93 N5        30.01S
BAD AXE        CLOUDY    66  62  89 E7        30.05S
CARO           CLOUDY    65  58  78 CALM      30.04R
DETROIT CITY   CLOUDY    70  66  87 NE8       30.01S
DETROIT        CLOUDY    70  65  84 E6        30.01S
FLINT          CLOUDY    64  57  78 E6        30.03S
GROSSE ILE     LGT RAIN  68  66  94 CALM      30.01R
HILLSDALE      CLOUDY    63  61  94 E10       29.98F
HOWELL         CLOUDY    63  58  86 NE3       30.02F

CITY           SKY/WX    TMP DP  RH WIND       PRES   REMARKS
JACKSON        CLOUDY    63  61  93 NE7       30.00F FOG
LAMBERTVILLE   HVY RAIN  67  65  91 NW3       30.02R
LANSING        CLOUDY    63  55  75 E7        30.03R
LAPEER         CLOUDY    63  59  86 CALM      30.04S
MASON          LGT RAIN  62  58  86 NE3       30.01F
MONROE         RAIN      67  65  93 NE3       30.01R
MT. CLEMENS    CLOUDY    70  68  94 NE9       30.00S FOG
PONTIAC        CLOUDY    66  62  87 E7        30.01S
PORT HOPE        N/A     66  62  87 E14       30.04S
PORT HURON     RAIN      68  64  88 NE3       30.03S
TRI CITIES     CLOUDY    64  61  90 NE7       30.05S
MIDLAND        FAIR      63  59  87 NE7       30.04R
TROY           CLOUDY    68  63  85 N6        30.04S
SAGINAW HB     CLOUDY    63  57  82 NE8       30.04R
$$
MIZ043>046-050>051-056>058-064>065-071>073-077>080-191600-
SOUTHWEST LOWER MICHIGAN

CITY           SKY/WX    TMP DP  RH WIND       PRES   REMARKS
BATTLE CREEK   CLOUDY    64  63  96 E10       30.01R FOG
BENTON HARBOR  MOSUNNY   72  63  73 SE10      29.96R
BIG RAPIDS     MOSUNNY   63  54  72 E8        30.04S
COLDWATER      CLOUDY    66  66 100 E5        29.99S
FREMONT        FAIR      65  55  70 E9        30.01S
HOLLAND        CLOUDY    66  59  78 E7        30.00R
GRAND RAPIDS   CLOUDY    64  53  67 NE10      30.01S
IONIA          CLOUDY    61  53  75 NE9       30.02S
KALAMAZOO      CLOUDY    67  63  87 VRB5      29.99R FOG
LUDINGTON      CLOUDY    65  55  70 E8        30.02S
MARSHALL       CLOUDY    64  63  98 NE5       29.99S FOG
MOUNT PLEASANT CLOUDY    64  58  81 NE8       30.03S
MUSKEGON       CLOUDY    66  51  58 E12       30.00S
SOUTH HAVEN    CLOUDY    70  66  87 E3        29.98R
$$
MIZ016>042-191600-
NORTHERN LOWER MICHIGAN

CITY           SKY/WX    TMP DP  RH WIND       PRES   REMARKS
ALPENA         MOSUNNY   67  58  72 E14       30.08S
BEAVER ISLAND  CLOUDY    66  56  70 E7        30.08R
BELLAIRE       MOSUNNY   67  55  66 E7        30.06S
CADILLAC       PTSUNNY   65  51  61 E10       30.05S
CHARLEVOIX     CLOUDY    65  56  73 E9        30.09S
FRANKFORT      CLOUDY    67  53  60 E6        30.04S
GAYLORD        PTSUNNY   62  55  77 E9        30.08S
GRAYLING       PTSUNNY   62  56  80 E9        30.08S
HARBOR SPRINGS CLOUDY    65  58  78 E12       30.08R
HOUGHTON LAKE  MOSUNNY   64  55  72 E10       30.06F
MANISTEE       MOSUNNY   65  54  67 E10       30.02F
OSCODA         PTSUNNY   67  60  77 NE13      30.06S
PELLSTON       CLOUDY    66  58  75 SE9       30.09R
ROGERS CITY    MOSUNNY   64  57  78 E10       30.10S
TRAVERSE CITY  CLOUDY    66  53  63 CALM      30.04S
$$
MIZ007>008-015-191600-
EASTERN UPPER MICHIGAN

CITY           SKY/WX    TMP DP  RH WIND       PRES   REMARKS
KINROSS        CLOUDY    64  57  78 SE12      30.11R
MACKINAC ISLAN CLOUDY    65  60  86 E13G18    30.08S
NEWBERRY       SUNNY     64  57  78 SE9       30.08S
S. S. MARIE    SUNNY     65  53  65 VRB7      30.10R
MUNISING         N/A     66  52  60 S8        30.05F
$$
MIZ004>006-011>014-085-191600-
CENTRAL UPPER MICHIGAN

CITY           SKY/WX    TMP DP  RH WIND       PRES   REMARKS
MANISTIQUE     MOSUNNY   64  57  80 SE10      30.06F
ESCANABA       CLOUDY    66  56  70 SE15      30.05S
MENOMINEE      CLOUDY    66  60  81 SE10      30.04S
SAWYER-GWINN   SUNNY     63  46  55 SE9       30.06S
$$
MIZ001>003-009>011-084-191600-
WESTERN UPPER MICHIGAN

CITY           SKY/WX    TMP DP  RH WIND       PRES   REMARKS
IRON MOUNTAIN  MOSUNNY   63  55  75 SE8       30.04S
HOUGHTON       SUNNY     62  52  69 E8        30.03S
COPPER HARBOR    N/A     61  52  72 SW10G17   30.04S
IRONWOOD       CLOUDY    63  53  70 E7        30.00S
$$

ABBREVIATIONS USED IN REMARKS
   TC - TEMPERATURE IN CELSIUS
  WCI - WIND CHILL INDEX
   HX - HEAT INDEX
  VSB - VISIBILITY





USA.gov is the U.S. government's official web portal to all federal, state and local government web resources and services.